STAR ONE D2

Last updated on Tue Oct 15 2024 00:02:41 GMT+0000 (Coordinated Universal Time)

1 49055U 21069A 24288.17913535 -.00000267 00000+0 00000+0 0 9993 2 49055 0.0112 210.8198 0002689 341.9281 184.9774 1.00269934 11782
UTC large
Height (km)
Speed (km/s)
/
Latitude / Longitude
Inclination (degrees)
Orbital Period (minutes)
Azimuth
Elevation
Range (km)
Doppler Factor

Next 0 passes for location: London (51.5072 / 0.1276)

Sorry there are no passes over London.